,,,PA_Meas_PMT16A,,PR_Meas_QMR101_102,,RH_Meas_QMH101,,SR_Meas_QMS101,,TA_Meas_QMH101,,GenWind,,GenWind,
date,time,status,PA,status,PR,status,RH,status,SR,status,TA,status,DirAvg,status,SpdAvg,
2009-03-05, 00:00:04,VALID,1000.5,VALID,0,VALID,94.5615,VALID,0,VALID,23.2542,VALID,125,VALID,0,
2009-03-05, 00:01:04,VALID,1000.51,VALID,0,VALID,94.5005,VALID,0,VALID,23.2134,VALID,125,VALID,0,
2009-03-05, 00:02:04,VALID,1000.48,VALID,0,VALID,94.4776,VALID,0,VALID,23.2152,VALID,124,VALID,0,
2009-03-05, 00:03:04,VALID,1000.43,VALID,0,VALID,94.4089,VALID,0,VALID,23.1957,VALID,124,VALID,0,
2009-03-05, 00:04:04,VALID,1000.45,VALID,0,VALID,94.5844,VALID,0,VALID,23.1957,VALID,103,VALID,0,
2009-03-05, 00:05:04,VALID,1000.41,VALID,0,VALID,94.5691,VALID,0,VALID,23.1957,VALID,103,VALID,0,
2009-03-05, 00:06:04,VALID,1000.4,VALID,0,VALID,94.4471,VALID,0,VALID,23.1957,VALID,102,VALID,0,
2009-03-05, 00:07:04,VALID,1000.39,VALID,0,VALID,94.3403,VALID,0,VALID,23.1566,VALID,99,VALID,0,
2009-03-05, 00:08:04,VALID,1000.38,VALID,0,VALID,94.1571,VALID,0,VALID,23.1371,VALID,81,VALID,0,
2009-03-05, 00:09:04,VALID,1000.39,VALID,0,VALID,94.2487,VALID,0,VALID,23.1176,VALID,81,VALID,0,
2009-03-05, 00:10:04,VALID,1000.41,VALID,0,VALID,94.1877,VALID,0,VALID,23.0981,VALID,81,VALID,0,
2009-03-05, 00:11:04,VALID,1000.38,VALID,0,VALID,94.2334,VALID,0,VALID,23.0786,VALID,81,VALID,0,
2009-03-05, 00:12:04,VALID,1000.42,VALID,0,VALID,94.2563,VALID,0,VALID,23.0786,VALID,81,VALID,0,
2009-03-05, 00:13:04,VALID,1000.4,VALID,0,VALID,94.2334,VALID,0,VALID,23.0591,VALID,81,VALID,0,
2009-03-05, 00:14:04,VALID,1000.41,VALID,0,VALID,94.4318,VALID,0,VALID,23.0396,VALID,81,VALID,0,
2009-03-05, 00:15:04,VALID,1000.41,VALID,0,VALID,94.4776,VALID,0,VALID,23.0591,VALID,78,VALID,0,
2009-03-05, 00:16:04,VALID,1000.42,VALID,0,VALID,94.531,VALID,0,VALID,23.0591,VALID,77,VALID,0,
2009-03-05, 00:17:04,VALID,1000.39,VALID,0,VALID,94.4165,VALID,0,VALID,23.0396,VALID,77,VALID,0,
2009-03-05, 00:18:04,VALID,1000.4,VALID,0,VALID,94.4165,VALID,0,VALID,23.0413,VALID,77,VALID,0,
2009-03-05, 00:19:04,VALID,1000.37,VALID,0,VALID,94.6531,VALID,0,VALID,23.0608,VALID,77,VALID,0,
2009-03-05, 00:20:04,VALID,1000.36,VALID,0,VALID,94.7141,VALID,0,VALID,23.0786,VALID,77,VALID,0,
2009-03-05, 00:21:04,VALID,1000.36,VALID,0,VALID,94.6149,VALID,0,VALID,23.0981,VALID,76,VALID,0,
2009-03-05, 00:22:04,VALID,1000.36,VALID,0,VALID,94.6683,VALID,0,VALID,23.1176,VALID,88,VALID,0,
2009-03-05, 00:23:04,VALID,1000.36,VALID,0,VALID,94.3708,VALID,0,VALID,23.0981,VALID,87,VALID,0,
2009-03-05, 00:24:04,VALID,1000.3,VALID,0,VALID,94.4471,VALID,0,VALID,23.0786,VALID,105,VALID,0,
2009-03-05, 00:25:04,VALID,1000.33,VALID,0,VALID,94.5081,VALID,0,VALID,23.0981,VALID,114,VALID,0,
2009-03-05, 00:26:04,VALID,1000.27,VALID,0,VALID,94.6454,VALID,0,VALID,23.1371,VALID,114,VALID,0,
2009-03-05, 00:27:04,VALID,1000.26,VALID,0,VALID,94.592,VALID,0,VALID,23.1371,VALID,112,VALID,0.0523437,
2009-03-05, 00:28:04,VALID,1000.25,VALID,0,VALID,94.6149,VALID,0,VALID,23.1566,VALID,116,VALID,1.14258,
2009-03-05, 00:29:04,VALID,1000.22,VALID,0,VALID,94.5234,VALID,0,VALID,23.1762,VALID,115,VALID,0.830078,
2009-03-05, 00:30:04,VALID,1000.18,VALID,0,VALID,94.5005,VALID,0,VALID,23.1762,VALID,120,VALID,0.875781,
2009-03-05, 00:31:04,VALID,1000.23,VALID,0,VALID,94.5234,VALID,0,VALID,23.1957,VALID,115,VALID,1.38242,
2009-03-05, 00:32:04,VALID,1000.21,VALID,0,VALID,94.4623,VALID,0,VALID,23.2152,VALID,113,VALID,1.11914,
2009-03-05, 00:33:04,VALID,1000.19,VALID,0,VALID,94.3784,VALID,0,VALID,23.2152,VALID,109,VALID,1.09336,
2009-03-05, 00:34:04,VALID,1000.19,VALID,0,VALID,94.3097,VALID,0,VALID,23.2347,VALID,116,VALID,1.05547,
2009-03-05, 00:35:04,VALID,1000.17,VALID,0,VALID,94.2792,VALID,0,VALID,23.2542,VALID,111,VALID,1.10781,
2009-03-05, 00:36:04,VALID,1000.13,VALID,0,VALID,94.2487,VALID,0,VALID,23.2542,VALID,110,VALID,1.0668,
2009-03-05, 00:37:04,VALID,1000.12,VALID,0,VALID,94.1266,VALID,0,VALID,23.2737,VALID,113,VALID,0.782812,
2009-03-05, 00:38:04,VALID,1000.09,VALID,0,VALID,94.1114,VALID,0,VALID,23.2932,VALID,128,VALID,0.810938,
2009-03-05, 00:39:04,VALID,1000.07,VALID,0,VALID,94.0274,VALID,0,VALID,23.3323,VALID,137,VALID,0.592969,
2009-03-05, 00:40:04,VALID,1000.06,VALID,0,VALID,93.8825,VALID,0,VALID,23.3323,VALID,137,VALID,0.23125,
2009-03-05, 00:41:04,VALID,1000.02,VALID,0,VALID,93.7833,VALID,0,VALID,23.3323,VALID,137,VALID,0.0105469,
2009-03-05, 00:42:04,VALID,1000.03,VALID,0,VALID,93.768,VALID,0,VALID,23.3127,VALID,137,VALID,0.0726563,
2009-03-05, 00:43:04,VALID,999.981,VALID,0,VALID,93.7985,VALID,0,VALID,23.3127,VALID,63,VALID,0.702734,
2009-03-05, 00:44:04,VALID,999.973,VALID,0,VALID,93.7757,VALID,0,VALID,23.3323,VALID,23,VALID,0.683203,
2009-03-05, 00:45:04,VALID,999.984,VALID,0,VALID,93.5926,VALID,0,VALID,23.3518,VALID,14,VALID,0.869922,
2009-03-05, 00:46:04,VALID,999.923,VALID,0,VALID,93.0508,VALID,0,VALID,23.3323,VALID,10,VALID,0.917578,
2009-03-05, 00:47:04,VALID,999.94,VALID,0,VALID,93.1348,VALID,0,VALID,23.3127,VALID,11,VALID,1.06602,
2009-03-05, 00:48:04,VALID,999.941,VALID,0,VALID,93.3866,VALID,0,VALID,23.2932,VALID,25,VALID,1.01523,
2009-03-05, 00:49:04,VALID,999.907,VALID,0,VALID,93.4857,VALID,0,VALID,23.2932,VALID,58,VALID,0.892578,
2009-03-05, 00:50:04,VALID,999.887,VALID,0,VALID,93.4247,VALID,0,VALID,23.3127,VALID,115,VALID,0.676172,
2009-03-05, 00:51:04,VALID,999.874,VALID,0,VALID,93.4094,VALID,0,VALID,23.3127,VALID,122,VALID,0.521875,
2009-03-05, 00:52:04,VALID,999.88,VALID,0,VALID,93.5468,VALID,0,VALID,23.3323,VALID,136,VALID,0.610547,
2009-03-05, 00:53:04,VALID,999.873,VALID,0,VALID,93.5391,VALID,0,VALID,23.3518,VALID,137,VALID,0.6,
2009-03-05, 00:54:04,VALID,999.899,VALID,0,VALID,93.5391,VALID,0,VALID,23.3908,VALID,137,VALID,0.6625,
2009-03-05, 00:55:04,VALID,999.904,VALID,0,VALID,93.4705,VALID,0,VALID,23.4298,VALID,137,VALID,0.571484,
2009-03-05, 00:56:04,VALID,999.908,VALID,0,VALID,93.3484,VALID,0,VALID,23.4493,VALID,137,VALID,0.7125,
2009-03-05, 00:57:04,VALID,999.894,VALID,0,VALID,93.2111,VALID,0,VALID,23.4688,VALID,137,VALID,0.824609,
2009-03-05, 00:58:04,VALID,999.888,VALID,0,VALID,93.089,VALID,0,VALID,23.4475,VALID,137,VALID,0.959375,
2009-03-05, 00:59:04,VALID,999.919,VALID,0,VALID,93.0432,VALID,0,VALID,23.4671,VALID,137,VALID,1.00703,
2009-03-05, 01:00:04,VALID,999.856,VALID,0,VALID,93.0127,VALID,0,VALID,23.4475,VALID,140,VALID,0.933203,
2009-03-05, 01:01:04,VALID,999.851,VALID,0,VALID,93.028,VALID,0,VALID,23.4688,VALID,159,VALID,0.799219,
2009-03-05, 01:02:04,VALID,999.853,VALID,0,VALID,92.9822,VALID,0,VALID,23.4085,VALID,159,VALID,0.447656,
2009-03-05, 01:03:04,VALID,999.836,VALID,0,VALID,92.8372,VALID,0,VALID,23.4103,VALID,103,VALID,0.560938,
2009-03-05, 01:04:04,VALID,999.84,VALID,0,VALID,93.089,VALID,0,VALID,23.3695,VALID,62,VALID,0.809766,
2009-03-05, 01:05:04,VALID,999.825,VALID,0,VALID,93.1119,VALID,0,VALID,23.3713,VALID,59,VALID,0.480469,
2009-03-05, 01:06:04,VALID,999.791,VALID,0,VALID,93.1348,VALID,0,VALID,23.3518,VALID,67,VALID,0.507422,
2009-03-05, 01:07:04,VALID,999.747,VALID,0,VALID,93.1882,VALID,0,VALID,23.3518,VALID,78,VALID,0.495703,
2009-03-05, 01:08:04,VALID,999.735,VALID,0,VALID,93.0585,VALID,0,VALID,23.3127,VALID,78,VALID,0.455469,
2009-03-05, 01:09:04,VALID,999.743,VALID,0,VALID,93.3866,VALID,0,VALID,23.3323,VALID,102,VALID,0.414844,
2009-03-05, 01:10:04,VALID,999.72,VALID,0,VALID,93.4857,VALID,0,VALID,23.3323,VALID,104,VALID,0.542969,
2009-03-05, 01:11:04,VALID,999.715,VALID,0,VALID,93.44,VALID,0,VALID,23.3323,VALID,116,VALID,0.435156,
2009-03-05, 01:12:04,VALID,999.68,VALID,0,VALID,93.3713,VALID,0,VALID,23.2932,VALID,116,VALID,0.303906,
2009-03-05, 01:13:04,VALID,999.684,VALID,0,VALID,93.295,VALID,0,VALID,23.2737,VALID,116,VALID,0.349609,
2009-03-05, 01:14:04,VALID,999.702,VALID,0,VALID,93.3255,VALID,0.112286,VALID,23.2542,VALID,123,VALID,0.300391,
2009-03-05, 01:15:04,VALID,999.682,VALID,0,VALID,93.4018,VALID,0,VALID,23.2152,VALID,123,VALID,0.221484,
2009-03-05, 01:16:04,VALID,999.704,VALID,0,VALID,93.3408,VALID,0,VALID,23.1762,VALID,123,VALID,0,
2009-03-05, 01:17:04,VALID,999.697,VALID,0,VALID,93.4705,VALID,0,VALID,23.1566,VALID,123,VALID,0,
2009-03-05, 01:18:04,VALID,999.705,VALID,0,VALID,93.5849,VALID,0,VALID,23.1371,VALID,123,VALID,0,
2009-03-05, 01:19:04,VALID,999.694,VALID,0,VALID,93.646,VALID,0,VALID,23.1371,VALID,123,VALID,0,
2009-03-05, 01:20:04,VALID,999.715,VALID,0,VALID,93.646,VALID,0,VALID,23.1176,VALID,123,VALID,0,
2009-03-05, 01:21:04,VALID,999.685,VALID,0,VALID,93.6994,VALID,0,VALID,23.0981,VALID,123,VALID,0,
2009-03-05, 01:22:04,VALID,999.665,VALID,0,VALID,93.8443,VALID,0,VALID,23.0981,VALID,123,VALID,0,
2009-03-05, 01:23:04,VALID,999.681,VALID,0,VALID,93.8825,VALID,0,VALID,23.0981,VALID,123,VALID,0,
2009-03-05, 01:24:04,VALID,999.643,VALID,0,VALID,93.8748,VALID,0,VALID,23.0981,VALID,123,VALID,0,
2009-03-05, 01:25:04,VALID,999.64,VALID,0,VALID,93.8748,VALID,0,VALID,23.0786,VALID,123,VALID,0,
2009-03-05, 01:26:04,VALID,999.623,VALID,0,VALID,93.8214,VALID,0,VALID,23.0591,VALID,123,VALID,0,
2009-03-05, 01:27:04,VALID,999.622,VALID,0,VALID,93.7757,VALID,0,VALID,23.0201,VALID,123,VALID,0,
2009-03-05, 01:28:04,VALID,999.58,VALID,0,VALID,93.8062,VALID,0,VALID,23.0006,VALID,123,VALID,0,
2009-03-05, 01:29:04,VALID,999.554,VALID,0,VALID,93.9283,VALID,0,VALID,22.9811,VALID,123,VALID,0,
2009-03-05, 01:30:04,VALID,999.521,VALID,0,VALID,94.0427,VALID,0,VALID,22.9811,VALID,123,VALID,0,
2009-03-05, 01:31:04,VALID,999.481,VALID,0,VALID,94.0503,VALID,0,VALID,22.9811,VALID,123,VALID,0,
2009-03-05, 01:32:04,VALID,999.433,VALID,0,VALID,94.119,VALID,0,VALID,22.9615,VALID,123,VALID,0,
2009-03-05, 01:33:04,VALID,999.403,VALID,0,VALID,94.2487,VALID,0,VALID,22.9615,VALID,123,VALID,0,
2009-03-05, 01:34:04,VALID,999.393,VALID,0,VALID,94.2792,VALID,0,VALID,22.9615,VALID,123,VALID,0.262109,
2009-03-05, 01:35:04,VALID,999.379,VALID,0,VALID,94.2487,VALID,0,VALID,22.9403,VALID,121,VALID,0.454297,
2009-03-05, 01:36:04,VALID,999.39,VALID,0,VALID,94.2716,VALID,0,VALID,22.942,VALID,81,VALID,0.484766,
2009-03-05, 01:37:04,VALID,999.328,VALID,0,VALID,94.1724,VALID,0,VALID,22.8818,VALID,81,VALID,0.323438,
2009-03-05, 01:38:04,VALID,999.33,VALID,0,VALID,94.18,VALID,0,VALID,22.8623,VALID,81,VALID,0.314453,
2009-03-05, 01:39:04,VALID,999.316,VALID,0,VALID,94.4165,VALID,0,VALID,22.8835,VALID,81,VALID,0.148828,
2009-03-05, 01:40:04,VALID,999.316,VALID,0,VALID,94.5157,VALID,0,VALID,22.8427,VALID,81,VALID,0,
2009-03-05, 01:41:04,VALID,999.28,VALID,0,VALID,94.2334,VALID,0,VALID,22.8445,VALID,81,VALID,0.164063,
2009-03-05, 01:42:04,VALID,999.311,VALID,0,VALID,94.2029,VALID,0,VALID,22.7664,VALID,81,VALID,0.293359,
2009-03-05, 01:43:04,VALID,999.299,VALID,0,VALID,94.6378,VALID,0,VALID,22.786,VALID,81,VALID,0.409375,
2009-03-05, 01:44:04,VALID,999.309,VALID,0,VALID,94.6912,VALID,0,VALID,22.825,VALID,81,VALID,0.759766,
2009-03-05, 01:45:04,VALID,999.308,VALID,0,VALID,94.6912,VALID,0,VALID,22.8037,VALID,81,VALID,0.929688,
2009-03-05, 01:46:04,VALID,999.302,VALID,0,VALID,94.8133,VALID,0,VALID,22.8445,VALID,81,VALID,0.717188,
2009-03-05, 01:47:04,VALID,999.291,VALID,0,VALID,94.6149,VALID,0,VALID,22.825,VALID,81,VALID,0.655078,
2009-03-05, 01:48:04,VALID,999.284,VALID,0,VALID,94.6988,VALID,0,VALID,22.8055,VALID,86,VALID,0.891797,
2009-03-05, 01:49:04,VALID,999.314,VALID,0,VALID,94.7065,VALID,0,VALID,22.786,VALID,98,VALID,0.892578,
2009-03-05, 01:50:04,VALID,999.297,VALID,0,VALID,94.6912,VALID,0,VALID,22.786,VALID,101,VALID,0.821094,
2009-03-05, 01:51:04,VALID,999.315,VALID,0,VALID,94.7294,VALID,0,VALID,22.7664,VALID,101,VALID,0.886328,
2009-03-05, 01:52:04,VALID,999.299,VALID,0,VALID,94.7141,VALID,0,VALID,22.7664,VALID,101,VALID,0.721875,
2009-03-05, 01:53:04,VALID,999.257,VALID,0,VALID,94.7065,VALID,0,VALID,22.7257,VALID,101,VALID,0.594922,
2009-03-05, 01:54:04,VALID,999.251,VALID,0,VALID,94.7828,VALID,0,VALID,22.7469,VALID,103,VALID,0.525391,
2009-03-05, 01:55:04,VALID,999.261,VALID,0,VALID,94.8514,VALID,0,VALID,22.7469,VALID,104,VALID,0.502734,
2009-03-05, 01:56:04,VALID,999.264,VALID,0,VALID,94.9583,VALID,0,VALID,22.7664,VALID,104,VALID,0.51875,
2009-03-05, 01:57:04,VALID,999.251,VALID,0,VALID,94.9048,VALID,0,VALID,22.786,VALID,104,VALID,0.368359,
2009-03-05, 01:58:04,VALID,999.293,VALID,0,VALID,94.9201,VALID,0,VALID,22.786,VALID,104,VALID,0.290234,
2009-03-05, 01:59:04,VALID,999.312,VALID,0,VALID,94.882,VALID,0.112286,VALID,22.7842,VALID,104,VALID,0.247266,
2009-03-05, 02:00:04,VALID,999.34,VALID,0,VALID,94.8362,VALID,0,VALID,22.786,VALID,104,VALID,0,
2009-03-05, 02:01:04,VALID,999.346,VALID,0,VALID,94.7294,VALID,0,VALID,22.7469,VALID,103,VALID,0,
2009-03-05, 02:02:04,VALID,999.375,VALID,0,VALID,94.6378,VALID,0,VALID,22.6672,VALID,103,VALID,0,
2009-03-05, 02:03:04,VALID,999.373,VALID,0,VALID,94.7217,VALID,0,VALID,22.6689,VALID,104,VALID,0.255078,
2009-03-05, 02:04:04,VALID,999.333,VALID,0,VALID,94.8209,VALID,0,VALID,22.6689,VALID,103,VALID,0.324219,
2009-03-05, 02:05:04,VALID,999.366,VALID,0,VALID,94.8285,VALID,0,VALID,22.6282,VALID,103,VALID,0.389844,
2009-03-05, 02:06:04,VALID,999.355,VALID,0,VALID,94.8514,VALID,0,VALID,22.6282,VALID,47,VALID,0.510938,
2009-03-05, 02:07:04,VALID,999.394,VALID,0,VALID,94.7599,VALID,0,VALID,22.6299,VALID,46,VALID,0.406641,
2009-03-05, 02:08:04,VALID,999.388,VALID,0,VALID,94.8514,VALID,0.112286,VALID,22.6104,VALID,46,VALID,0.279297,
2009-03-05, 02:09:04,VALID,999.373,VALID,0,VALID,94.8591,VALID,0,VALID,22.5892,VALID,46,VALID,0.179297,
2009-03-05, 02:10:04,VALID,999.402,VALID,0,VALID,94.8591,VALID,0,VALID,22.5909,VALID,46,VALID,0.0660156,
2009-03-05, 02:11:04,VALID,999.371,VALID,0,VALID,94.9277,VALID,0,VALID,22.5696,VALID,46,VALID,0.0667969,
2009-03-05, 02:12:04,VALID,999.382,VALID,0,VALID,95.0193,VALID,0,VALID,22.6104,VALID,46,VALID,0.424219,
2009-03-05, 02:13:04,VALID,999.381,VALID,0,VALID,95.0727,VALID,0,VALID,22.6299,VALID,42,VALID,0.661328,
2009-03-05, 02:14:04,VALID,999.405,VALID,0,VALID,95.1337,VALID,0,VALID,22.6282,VALID,37,VALID,0.673047,
2009-03-05, 02:15:04,VALID,999.37,VALID,0,VALID,95.1414,VALID,0.112286,VALID,22.6477,VALID,37,VALID,0.396094,
2009-03-05, 02:16:04,VALID,999.363,VALID,0,VALID,95.1261,VALID,0,VALID,22.6689,VALID,37,VALID,0.221094,
2009-03-05, 02:17:04,VALID,999.336,VALID,0,VALID,95.1337,VALID,0,VALID,22.6672,VALID,37,VALID,0.310547,
2009-03-05, 02:18:04,VALID,999.328,VALID,0,VALID,95.149,VALID,0,VALID,22.6867,VALID,37,VALID,0,
2009-03-05, 02:19:04,VALID,999.346,VALID,0,VALID,95.3474,VALID,0,VALID,22.7062,VALID,37,VALID,0.270703,
2009-03-05, 02:20:04,VALID,999.34,VALID,0,VALID,95.6068,VALID,0,VALID,22.864,VALID,80,VALID,0.694531,
2009-03-05, 02:21:04,VALID,999.346,VALID,0,VALID,95.5991,VALID,0,VALID,22.9811,VALID,83,VALID,0.741797,
2009-03-05, 02:22:04,VALID,999.34,VALID,0,VALID,95.4923,VALID,0,VALID,23.0183,VALID,101,VALID,0.915625,
2009-03-05, 02:23:04,VALID,999.38,VALID,0,VALID,95.3245,VALID,0,VALID,23.0573,VALID,102,VALID,0.847656,
2009-03-05, 02:24:04,VALID,999.408,VALID,0,VALID,95.1108,VALID,0,VALID,23.0981,VALID,112,VALID,0.764453,
2009-03-05, 02:25:04,VALID,999.438,VALID,0,VALID,94.8209,VALID,0,VALID,23.0378,VALID,112,VALID,0.323828,
2009-03-05, 02:26:04,VALID,999.434,VALID,0,VALID,94.5997,VALID,0,VALID,22.9598,VALID,112,VALID,0,
2009-03-05, 02:27:04,VALID,999.473,VALID,0,VALID,94.5386,VALID,0,VALID,22.9615,VALID,112,VALID,0,
2009-03-05, 02:28:04,VALID,999.476,VALID,0,VALID,94.4852,VALID,0.112286,VALID,22.9225,VALID,112,VALID,0.206641,
2009-03-05, 02:29:04,VALID,999.465,VALID,0,VALID,94.531,VALID,0.112286,VALID,22.9225,VALID,109,VALID,0.583594,
2009-03-05, 02:30:04,VALID,999.474,VALID,0,VALID,94.6302,VALID,0.112286,VALID,22.9013,VALID,97,VALID,0.737891,
2009-03-05, 02:31:04,VALID,999.484,VALID,0,VALID,94.7599,VALID,0,VALID,22.9013,VALID,97,VALID,0.694531,
2009-03-05, 02:32:04,VALID,999.444,VALID,0,VALID,94.8209,VALID,0,VALID,22.9403,VALID,98,VALID,0.690234,
2009-03-05, 02:33:04,VALID,999.475,VALID,0,VALID,94.7294,VALID,0.112286,VALID,22.9811,VALID,104,VALID,0.566797,
2009-03-05, 02:34:04,VALID,999.463,VALID,0,VALID,94.6378,VALID,0,VALID,23.0006,VALID,104,VALID,0.422266,
2009-03-05, 02:35:04,VALID,999.502,VALID,0,VALID,94.5386,VALID,0,VALID,22.9598,VALID,104,VALID,0.191797,
2009-03-05, 02:36:04,VALID,999.476,VALID,0,VALID,94.4013,VALID,0,VALID,22.942,VALID,104,VALID,0.0105469,
2009-03-05, 02:37:04,VALID,999.474,VALID,0,VALID,94.3326,VALID,0,VALID,22.9225,VALID,104,VALID,0,
2009-03-05, 02:38:04,VALID,999.508,VALID,0,VALID,94.3555,VALID,0,VALID,22.8818,VALID,104,VALID,0.163281,
2009-03-05, 02:39:04,VALID,999.502,VALID,0,VALID,94.3784,VALID,0,VALID,22.8623,VALID,105,VALID,0.0425781,
2009-03-05, 02:40:04,VALID,999.507,VALID,0,VALID,94.3708,VALID,0,VALID,22.8445,VALID,105,VALID,0,
2009-03-05, 02:41:04,VALID,999.528,VALID,0,VALID,94.4471,VALID,0,VALID,22.8445,VALID,105,VALID,0,
2009-03-05, 02:42:04,VALID,999.43,VALID,0,VALID,94.3784,VALID,0,VALID,22.825,VALID,105,VALID,0.284375,
2009-03-05, 02:43:04,VALID,999.499,VALID,0,VALID,94.3326,VALID,0,VALID,22.7452,VALID,105,VALID,0.0765625,
2009-03-05, 02:44:04,VALID,999.487,VALID,0,VALID,94.4547,VALID,0,VALID,22.786,VALID,105,VALID,0,
2009-03-05, 02:45:04,VALID,999.504,VALID,0,VALID,94.3555,VALID,0,VALID,22.7274,VALID,105,VALID,0.00117188,
2009-03-05, 02:46:04,VALID,999.488,VALID,0,VALID,94.4394,VALID,0,VALID,22.7079,VALID,105,VALID,0,
2009-03-05, 02:47:04,VALID,999.486,VALID,0,VALID,94.5539,VALID,0,VALID,22.6867,VALID,105,VALID,0.107813,
2009-03-05, 02:48:04,VALID,999.463,VALID,0,VALID,94.676,VALID,0,VALID,22.7079,VALID,104,VALID,0.390234,
2009-03-05, 02:49:04,VALID,999.448,VALID,0,VALID,94.6607,VALID,0,VALID,22.7079,VALID,104,VALID,0,
2009-03-05, 02:50:04,VALID,999.487,VALID,0,VALID,94.5997,VALID,0,VALID,22.6672,VALID,104,VALID,0,
2009-03-05, 02:51:04,VALID,999.48,VALID,0,VALID,94.5081,VALID,0,VALID,22.6689,VALID,104,VALID,0,
2009-03-05, 02:52:04,VALID,999.512,VALID,0,VALID,94.4242,VALID,0,VALID,22.6087,VALID,104,VALID,0,
2009-03-05, 02:53:04,VALID,999.482,VALID,0,VALID,94.4318,VALID,0,VALID,22.5909,VALID,104,VALID,0.353906,
2009-03-05, 02:54:04,VALID,999.494,VALID,0,VALID,94.4013,VALID,0,VALID,22.5501,VALID,104,VALID,0.396094,
2009-03-05, 02:55:04,VALID,999.512,VALID,0,VALID,94.4547,VALID,0,VALID,22.5128,VALID,90,VALID,0.513672,
2009-03-05, 02:56:04,VALID,999.494,VALID,0,VALID,94.7065,VALID,0,VALID,22.5323,VALID,90,VALID,0.534766,
2009-03-05, 02:57:04,VALID,999.517,VALID,0,VALID,94.798,VALID,0,VALID,22.5306,VALID,44,VALID,0.420312,
2009-03-05, 02:58:04,VALID,999.493,VALID,0,VALID,94.9354,VALID,0,VALID,22.5714,VALID,44,VALID,0.440234,
2009-03-05, 02:59:04,VALID,999.508,VALID,0,VALID,95.0498,VALID,0,VALID,22.5909,VALID,44,VALID,0.597656,
2009-03-05, 03:00:04,VALID,999.538,VALID,0,VALID,95.0422,VALID,0,VALID,22.6299,VALID,48,VALID,0.704297,
2009-03-05, 03:01:04,VALID,999.52,VALID,0,VALID,95.1032,VALID,0,VALID,22.6494,VALID,70,VALID,0.753125,
2009-03-05, 03:02:04,VALID,999.48,VALID,0,VALID,95.1032,VALID,0,VALID,22.7079,VALID,85,VALID,0.526953,
2009-03-05, 03:03:04,VALID,999.469,VALID,0,VALID,94.9583,VALID,0,VALID,22.6884,VALID,85,VALID,0.487891,
2009-03-05, 03:04:04,VALID,999.485,VALID,0,VALID,94.9506,VALID,0.112286,VALID,22.6867,VALID,61,VALID,0.607813,
2009-03-05, 03:05:04,VALID,999.503,VALID,0,VALID,94.8896,VALID,0,VALID,22.6884,VALID,47,VALID,0.852734,
2009-03-05, 03:06:04,VALID,999.537,VALID,0,VALID,94.7751,VALID,0,VALID,22.6706,VALID,43,VALID,1.06797,
2009-03-05, 03:07:04,VALID,999.531,VALID,0,VALID,94.5539,VALID,0,VALID,22.6104,VALID,26,VALID,0.775,
2009-03-05, 03:08:04,VALID,999.532,VALID,0,VALID,94.2945,VALID,0,VALID,22.495,VALID,12,VALID,0.985937,
2009-03-05, 03:09:04,VALID,999.553,VALID,0,VALID,94.4394,VALID,0,VALID,22.456,VALID,22,VALID,0.813281,
2009-03-05, 03:10:04,VALID,999.538,VALID,0,VALID,94.5844,VALID,0,VALID,22.4365,VALID,23,VALID,0.465234,
2009-03-05, 03:11:04,VALID,999.527,VALID,0,VALID,94.6836,VALID,0,VALID,22.417,VALID,23,VALID,0.409766,
2009-03-05, 03:12:04,VALID,999.547,VALID,0,VALID,94.8285,VALID,0,VALID,22.417,VALID,52,VALID,0.464844,
2009-03-05, 03:13:04,VALID,999.519,VALID,0,VALID,94.9125,VALID,0,VALID,22.417,VALID,62,VALID,0.496484,
2009-03-05, 03:14:04,VALID,999.543,VALID,0,VALID,94.8972,VALID,0,VALID,22.417,VALID,62,VALID,0.489844,
2009-03-05, 03:15:04,VALID,999.566,VALID,0,VALID,94.8743,VALID,0,VALID,22.417,VALID,62,VALID,0.707422,
2009-03-05, 03:16:04,VALID,999.554,VALID,0,VALID,94.8438,VALID,0,VALID,22.3763,VALID,62,VALID,0.713672,
2009-03-05, 03:17:04,VALID,999.557,VALID,0,VALID,94.8362,VALID,0,VALID,22.3568,VALID,59,VALID,0.767187,
2009-03-05, 03:18:04,VALID,999.573,VALID,0,VALID,94.8972,VALID,0,VALID,22.3568,VALID,53,VALID,0.705859,
2009-03-05, 03:19:04,VALID,999.545,VALID,0,VALID,94.8057,VALID,0,VALID,22.3585,VALID,45,VALID,0.541406,
2009-03-05, 03:20:04,VALID,999.552,VALID,0,VALID,94.7751,VALID,0,VALID,22.3,VALID,43,VALID,0.338672,
2009-03-05, 03:21:04,VALID,999.529,VALID,0,VALID,94.7751,VALID,0,VALID,22.2592,VALID,42,VALID,0.532812,
2009-03-05, 03:22:04,VALID,999.534,VALID,0,VALID,94.9125,VALID,0,VALID,22.2592,VALID,42,VALID,0.461719,
2009-03-05, 03:23:04,VALID,999.515,VALID,0,VALID,95.0727,VALID,0,VALID,22.3178,VALID,42,VALID,0.579297,
2009-03-05, 03:24:04,VALID,999.517,VALID,0,VALID,95.0727,VALID,0,VALID,22.2966,VALID,35,VALID,0.438672,
2009-03-05, 03:25:04,VALID,999.538,VALID,0,VALID,95.0422,VALID,0,VALID,22.3178,VALID,35,VALID,0.276563,
2009-03-05, 03:26:04,VALID,999.511,VALID,0,VALID,95.0727,VALID,0,VALID,22.3161,VALID,35,VALID,0.387109,
2009-03-05, 03:27:04,VALID,999.519,VALID,0,VALID,95.0422,VALID,0,VALID,22.3373,VALID,35,VALID,0.479688,
2009-03-05, 03:28:04,VALID,999.499,VALID,0,VALID,95.0345,VALID,0,VALID,22.2983,VALID,35,VALID,0.439063,
2009-03-05, 03:29:04,VALID,999.503,VALID,0,VALID,95.0651,VALID,0,VALID,22.3178,VALID,35,VALID,0.346094,
2009-03-05, 03:30:04,VALID,999.517,VALID,0,VALID,94.9811,VALID,0,VALID,22.2576,VALID,35,VALID,0.317187,
2009-03-05, 03:31:04,VALID,999.568,VALID,0,VALID,94.9277,VALID,0,VALID,22.2592,VALID,35,VALID,0.33125,
2009-03-05, 03:32:04,VALID,999.555,VALID,0,VALID,94.9583,VALID,0,VALID,22.2186,VALID,35,VALID,0.421484,
2009-03-05, 03:33:04,VALID,999.651,VALID,0,VALID,94.9735,VALID,0,VALID,22.2186,VALID,35,VALID,0.407813,
2009-03-05, 03:34:04,VALID,999.642,VALID,0,VALID,95.0117,VALID,0,VALID,22.199,VALID,35,VALID,0.56875,
2009-03-05, 03:35:04,VALID,999.648,VALID,0,VALID,95.0498,VALID,0,VALID,22.199,VALID,35,VALID,0.482812,
2009-03-05, 03:36:04,VALID,999.653,VALID,0,VALID,95.0651,VALID,0,VALID,22.1795,VALID,35,VALID,0.329297,
2009-03-05, 03:37:04,VALID,999.698,VALID,0,VALID,95.0727,VALID,0,VALID,22.1795,VALID,35,VALID,0.189063,
2009-03-05, 03:38:04,VALID,999.705,VALID,0,VALID,95.1414,VALID,0,VALID,22.2007,VALID,35,VALID,0.129688,
2009-03-05, 03:39:04,VALID,999.717,VALID,0,VALID,95.2787,VALID,0,VALID,22.2381,VALID,35,VALID,0,
2009-03-05, 03:40:04,VALID,999.755,VALID,0,VALID,95.3245,VALID,0,VALID,22.2381,VALID,35,VALID,0,
2009-03-05, 03:41:04,VALID,999.779,VALID,0,VALID,95.2558,VALID,0,VALID,22.2576,VALID,35,VALID,0,
2009-03-05, 03:42:04,VALID,999.802,VALID,0,VALID,95.2634,VALID,0,VALID,22.2576,VALID,35,VALID,0,
2009-03-05, 03:43:04,VALID,999.809,VALID,0,VALID,95.1871,VALID,0,VALID,22.2592,VALID,35,VALID,0,
2009-03-05, 03:44:04,VALID,999.807,VALID,0,VALID,95.1337,VALID,0.112286,VALID,22.2381,VALID,35,VALID,0.596875,
2009-03-05, 03:45:04,VALID,999.817,VALID,0,VALID,95.2711,VALID,0,VALID,22.2186,VALID,35,VALID,0.851172,
2009-03-05, 03:46:04,VALID,999.811,VALID,0,VALID,95.3855,VALID,0.112286,VALID,22.2771,VALID,33,VALID,0.765234,
2009-03-05, 03:47:04,VALID,999.808,VALID,0,VALID,95.5152,VALID,0,VALID,22.3356,VALID,33,VALID,0.5,
2009-03-05, 03:48:04,VALID,999.845,VALID,0,VALID,95.5305,VALID,0,VALID,22.4153,VALID,33,VALID,0.349219,
2009-03-05, 03:49:04,VALID,999.847,VALID,0,VALID,95.4694,VALID,0,VALID,22.4136,VALID,33,VALID,0.252734,